[[{"header":{"parameterUnit":"m.s-1","parameterCategory":1,"la1":30.2991,"la2":30.254,"lo1":-89.0895,"lo2":-89.0444,"dy":0.0017,"dx":0.0017,"nx":28,"ny":28,"refTime":"2023-11-05T03:00:00:Z","depth":0,"parameterNumber":2,"parameterNumberName":"U-component_of_WINDS"},"data":[0,0,0,0,0,0,0,0,0,0,0,0,0,0,0,0,0,0,0,0,0,0,0,0,0,0,0,0,0,0,0,0,0,0,0,0,0,0,0,0,0,0,0,0,0,0,0,0,0,0,0,0,0,0,0,0,0,0,0.2889,0.2889,0,0.2891,0.2891,0.2891,0.2909,0.291,0.291,0.291,0.2909,0.2909,0.2908,0,0,0,0,0,0,0,0,0,0,0,0,0,0.29,0.2899,0.2889,0.2889,0.2889,0.2891,0.2891,0.2891,0.2909,0.291,0.291,0.2911,0.2909,0.2909,0.2908,0,0,0,0,0,0,0,0,0,0,0,0,0,0.2897,0.2899,0.2889,0.2898,0.2899,0.2891,0.2891,0.2891,0.2909,0.291,0.291,0.2911,0.2909,0.2909,0.2908,0.2889,0,0,0.2906,0.2905,0,0,0,0,0,0,0,0,0.2898,0.2897,0.2897,0.2898,0.2899,0.29,0.2894,0.289,0.2909,0.2905,0.291,0.2911,0.2905,0.2905,0.2904,0.2889,0.2889,0.2906,0.2905,0.2905,0.2905,0,0,0,0,0,0,0,0.2898,0.2897,0.2889,0.2897,0.2898,0.2902,0.2902,0.2893,0.2901,0.2905,0.2907,0.2907,0.2906,0.2904,0.2904,0.2889,0.2906,0.2905,0.2905,0.2904,0.286,0.286,0,0,0,0,0,0,0.2897,0.2897,0.2889,0.2889,0.29,0.2901,0.2902,0.2899,0.2901,0.2902,0.2906,0.2908,0.2905,0.2905,0.2904,0.2882,0.2905,0.2904,0.2904,0.2861,0.286,0.2859,0,0,0,0,0,0,0.2897,0.2896,0.2889,0.2894,0.2893,0.29,0.2897,0.2899,0.2897,0.2902,0.2903,0.2903,0.2906,0.2905,0.2893,0.2882,0.2904,0.2903,0.2862,0.2861,0.286,0.2839,0,0,0,0,0,0,0.2897,0.2896,0.2889,0.2893,0.2893,0.2879,0.2896,0.2898,0.2896,0.2898,0.2899,0.29,0.2906,0.2894,0.2892,0.2882,0.2903,0.2863,0.2861,0.286,0.284,0.2837,0.2834,0,0,0,0,0,0.2898,0.2882,0.2889,0.2888,0.2885,0.2878,0.2878,0.2886,0.2895,0.2888,0.2892,0.29,0.2884,0.2893,0.2891,0.288,0.2864,0.2862,0.286,0.2842,0.2838,0.2834,0,0,0,0,0,0,0.2875,0.2883,0.289,0.2876,0.2877,0.2882,0.2873,0.2881,0.2878,0.288,0.2889,0.2889,0.2876,0.2877,0.2887,0.2863,0.2875,0.2873,0.2862,0.2858,0.2855,0.2855,0.2902,0,0,0,0,0,0.2869,0.2864,0.2871,0.2858,0.2858,0.2865,0.2863,0.2869,0.287,0.287,0.2872,0.2871,0.2866,0.2863,0.2858,0.2841,0.2842,0.2833,0.283,0.2827,0.2825,0.2816,0.2813,0.2854,0.2854,0.2854,0,0,0.2855,0.2859,0.2855,0.2853,0.2855,0.2849,0.2865,0.2858,0.2853,0.2868,0.2857,0.286,0.2859,0.2845,0.2839,0.2846,0.2814,0.2825,0.2823,0.2822,0.2814,0.281,0.2807,0.2853,0.2853,0.2853,0,0,0.2827,0.283,0.282,0.2821,0.2823,0.2828,0.2826,0.283,0.2832,0.2822,0.2833,0.2828,0.2819,0.2819,0.2817,0.2791,0.2799,0.279,0.2773,0.2764,0.2761,0.2758,0.2749,0.2745,0.2787,0.2787,0.2787,0,0.281,0.2802,0.2813,0.2805,0.2804,0.2819,0.2808,0.2809,0.2809,0.2807,0.2815,0.2805,0.2806,0.2792,0.2786,0.2785,0.2782,0.2789,0.2761,0.2758,0.2756,0.2746,0.2743,0.2786,0.2786,0.2786,0.2787,0,0.278,0.2775,0.2766,0.2767,0.2765,0.2756,0.2765,0.2762,0.2769,0.2773,0.2763,0.2765,0.2762,0.2759,0.2765,0.2746,0.275,0.2759,0.2772,0.275,0.2742,0.2738,0.2784,0.2785,0.2785,0.2786,0,0,0.2736,0.2745,0.2742,0.2743,0.2747,0.2742,0.2734,0.2732,0.2729,0.2729,0.2722,0.2715,0.2724,0.2722,0.2729,0.2722,0.2701,0.2732,0.2732,0.2725,0.268,0.2672,0.2668,0.2707,0.2706,0.2706,0.268,0,0.2709,0.2696,0.2706,0.2691,0.2686,0.2701,0.2694,0.2695,0.27,0.2696,0.2701,0.2695,0.2708,0.2707,0.2701,0.2705,0.2692,0.2707,0.2699,0.2699,0.2698,0.2664,0.2655,0.2631,0.2676,0.2676,0.2676,0,0.2675,0.2675,0.266,0.2666,0.2664,0.2658,0.2657,0.2653,0.2656,0.2659,0.2659,0.2668,0.266,0.2674,0.2662,0.2673,0.267,0.2672,0.2671,0.267,0.2685,0.266,0.2623,0.2619,0.2671,0.2671,0.2671,0,0.2644,0.264,0.2631,0.2631,0.2638,0.2633,0.2636,0.2639,0.2637,0.2637,0.2636,0.2634,0.2633,0.2631,0.2639,0.2648,0.2627,0.2641,0.2629,0.2628,0.2622,0.2622,0.2583,0.2623,0.2623,0.2623,0.2623,0,0.2612,0.2602,0.2617,0.2611,0.26,0.2612,0.2601,0.2605,0.2608,0.2603,0.2616,0.261,0.2622,0.2618,0.2624,0.2614,0.2613,0.2615,0.2617,0.2614,0.2613,0.2611,0.2613,0.2622,0.2622,0.2622,0.2622,0,0.2574,0.2584,0.2575,0.2583,0.2585,0.2577,0.2584,0.2578,0.2584,0.2578,0.2577,0.2586,0.2582,0.259,0.2587,0.2591,0.2577,0.2581,0.2576,0.2577,0.2564,0.2565,0.2521,0.2516,0.2559,0.2559,0.2559,0,0.2553,0.2545,0.2554,0.2552,0.2554,0.255,0.2549,0.2561,0.2559,0.2562,0.2557,0.2554,0.2552,0.2545,0.2551,0.2548,0.2553,0.2538,0.2552,0.2549,0.2551,0.2551,0.2551,0.2534,0.2533,0.2533,0.2533,0,0.2513,0.2519,0.2517,0.2517,0.2516,0.2517,0.2518,0.2516,0.2528,0.2526,0.2522,0.2521,0.2519,0.2516,0.2515,0.2517,0.2527,0.2528,0.2525,0.2521,0.2518,0.2519,0.2567,0.2529,0.2529,0.2529,0.253,0.253,0.2482,0.2477,0.2482,0.248,0.2483,0.2484,0.248,0.2486,0.2484,0.2483,0.2491,0.2486,0.2489,0.2489,0.2491,0.2487,0.2493,0.2489,0.2487,0.2486,0.2484,0.252,0.2487,0.2487,0.2487,0.2487,0.2487,0,0.2443,0.2447,0.2445,0.2448,0.2446,0.2457,0.246,0.2457,0.2453,0.2456,0.2455,0.2451,0.2448,0.2455,0.2453,0.2449,0.2453,0.2448,0.2448,0.2448,0.2478,0.2481,0.2445,0.2445,0.2445,0.2445,0.2445,0.2445,0.2422,0.2413,0.242,0.2412,0.2417,0.2413,0.2413,0.2415,0.2417,0.2413,0.2411,0.2416,0.242,0.242,0.2418,0.242,0.2418,0.2411,0.2414,0.2442,0.2446,0.245,0.2452,0.2411,0.2411,0.2385,0.2385,0.2384]},{"header":{"parameterUnit":"m.s-1","parameterCategory":1,"la1":30.2991,"la2":30.254,"lo1":-89.0895,"lo2":-89.0444,"dy":0.0017,"dx":0.0017,"nx":28,"ny":28,"refTime":"2023-11-05T03:00:00:Z","depth":0,"parameterNumber":3,"parameterNumberName":"V-component_of_WINDS"},"data":[0,0,0,0,0,0,0,0,0,0,0,0,0,0,0,0,0,0,0,0,0,0,0,0,0,0,0,0,0,0,0,0,0,0,0,0,0,0,0,0,0,0,0,0,0,0,0,0,0,0,0,0,0,0,0,0,0,0,-2.554,-2.5541,0,-2.5636,-2.5637,-2.5638,-2.5627,-2.5625,-2.5624,-2.5622,-2.5717,-2.5721,-2.5725,0,0,0,0,0,0,0,0,0,0,0,0,0,-2.5345,-2.5349,-2.554,-2.5541,-2.5543,-2.5636,-2.5637,-2.5639,-2.5627,-2.5625,-2.5623,-2.5622,-2.5716,-2.572,-2.5725,0,0,0,0,0,0,0,0,0,0,0,0,0,-2.5434,-2.535,-2.554,-2.5548,-2.555,-2.5636,-2.5637,-2.5639,-2.5627,-2.5625,-2.5623,-2.5621,-2.5714,-2.572,-2.5726,-2.5808,0,0,-2.5744,-2.5746,0,0,0,0,0,0,0,0,-2.5429,-2.5441,-2.5546,-2.5548,-2.555,-2.5617,-2.5603,-2.5696,-2.5628,-2.5598,-2.5622,-2.562,-2.5685,-2.5693,-2.5716,-2.5813,-2.5817,-2.5744,-2.5748,-2.575,-2.5752,0,0,0,0,0,0,0,-2.5423,-2.5437,-2.5578,-2.5547,-2.555,-2.5547,-2.5557,-2.5621,-2.5653,-2.56,-2.56,-2.5611,-2.5686,-2.5711,-2.5719,-2.5818,-2.5744,-2.5749,-2.5753,-2.5755,-2.5991,-2.5993,0,0,0,0,0,0,-2.5415,-2.5432,-2.5575,-2.5581,-2.5483,-2.5552,-2.5563,-2.5598,-2.5653,-2.5659,-2.5613,-2.5611,-2.5702,-2.5712,-2.5722,-2.5825,-2.575,-2.5756,-2.5759,-2.5988,-2.5991,-2.5994,0,0,0,0,0,0,-2.5411,-2.5428,-2.5571,-2.5507,-2.5524,-2.5558,-2.5597,-2.5601,-2.5626,-2.5662,-2.5668,-2.5633,-2.57,-2.5713,-2.5788,-2.5828,-2.5759,-2.5764,-2.5985,-2.5989,-2.5993,-2.603,0,0,0,0,0,0,-2.5406,-2.5427,-2.5459,-2.5507,-2.5528,-2.5636,-2.5599,-2.5604,-2.5637,-2.5634,-2.5682,-2.5688,-2.57,-2.5779,-2.5794,-2.5835,-2.5769,-2.5981,-2.5987,-2.5991,-2.6025,-2.6035,-2.6043,0,0,0,0,0,-2.5399,-2.5464,-2.546,-2.5478,-2.5569,-2.5638,-2.565,-2.5663,-2.564,-2.5672,-2.5696,-2.5686,-2.5821,-2.5787,-2.5803,-2.5847,-2.5979,-2.5985,-2.5991,-2.6021,-2.6033,-2.6043,0,0,0,0,0,0,-2.5417,-2.547,-2.5467,-2.555,-2.559,-2.5636,-2.5678,-2.5675,-2.5721,-2.5716,-2.573,-2.5741,-2.5817,-2.5839,-2.58,-2.5931,-2.5897,-2.5906,-2.5914,-2.5925,-2.5934,-2.5928,-2.5773,0,0,0,0,0,-2.5431,-2.5484,-2.5527,-2.5596,-2.5617,-2.5644,-2.5674,-2.5682,-2.5723,-2.574,-2.5769,-2.5809,-2.586,-2.5894,-2.5943,-2.6028,-2.604,-2.6066,-2.6075,-2.6082,-2.6091,-2.614,-2.6153,-2.6014,-2.6014,-2.6014,0,0,-2.5459,-2.5495,-2.5527,-2.5601,-2.5633,-2.5687,-2.5658,-2.5716,-2.5757,-2.5748,-2.5821,-2.5844,-2.589,-2.5971,-2.6008,-2.5992,-2.6132,-2.609,-2.6095,-2.61,-2.6148,-2.6161,-2.6173,-2.6018,-2.6017,-2.6017,0,0,-2.554,-2.5572,-2.5634,-2.5668,-2.5718,-2.5736,-2.5751,-2.5799,-2.5814,-2.5888,-2.5884,-2.5932,-2.602,-2.6053,-2.6082,-2.6179,-2.6172,-2.6194,-2.624,-2.6289,-2.63,-2.631,-2.6346,-2.6359,-2.6202,-2.6203,-2.6203,0,-2.5569,-2.5652,-2.5666,-2.5727,-2.576,-2.5756,-2.582,-2.5851,-2.5914,-2.5937,-2.5918,-2.6031,-2.6061,-2.6151,-2.6175,-2.6198,-2.6216,-2.6189,-2.6297,-2.6307,-2.6316,-2.6352,-2.6365,-2.6205,-2.6205,-2.6205,-2.6204,0,-2.5687,-2.5745,-2.5789,-2.5853,-2.589,-2.5952,-2.5976,-2.6012,-2.6017,-2.6037,-2.6114,-2.615,-2.6208,-2.623,-2.6233,-2.6322,-2.631,-2.6294,-2.626,-2.6332,-2.6366,-2.6379,-2.6209,-2.6208,-2.6207,-2.6206,0,0,-2.5781,-2.5854,-2.587,-2.59,-2.5956,-2.6,-2.6062,-2.6121,-2.6153,-2.6197,-2.625,-2.6326,-2.6313,-2.6345,-2.6352,-2.6395,-2.6472,-2.6374,-2.6375,-2.6393,-2.6575,-2.6588,-2.6604,-2.6468,-2.6471,-2.6473,-2.6572,0,-2.5869,-2.598,-2.5996,-2.6094,-2.6149,-2.6148,-2.6202,-2.6242,-2.6263,-2.6313,-2.6335,-2.639,-2.6367,-2.6387,-2.6429,-2.6454,-2.6509,-2.6447,-2.6518,-2.6521,-2.6509,-2.6621,-2.6634,-2.6726,-2.6585,-2.6587,-2.6589,0,-2.5986,-2.6036,-2.614,-2.6192,-2.6215,-2.6264,-2.6321,-2.6367,-2.6414,-2.6426,-2.6464,-2.6467,-2.6532,-2.6495,-2.6585,-2.6543,-2.6573,-2.659,-2.6594,-2.6602,-2.656,-2.6634,-2.6755,-2.677,-2.6609,-2.6607,-2.6606,0,-2.6047,-2.614,-2.6215,-2.6241,-2.6302,-2.6336,-2.6363,-2.6407,-2.6443,-2.6492,-2.6515,-2.657,-2.6601,-2.6644,-2.6662,-2.6633,-2.6752,-2.6716,-2.6765,-2.6765,-2.6791,-2.6789,-2.6921,-2.6808,-2.6807,-2.6807,-2.6807,0,-2.6144,-2.6209,-2.6244,-2.629,-2.6363,-2.6381,-2.6452,-2.6478,-2.6518,-2.6569,-2.657,-2.6619,-2.6639,-2.6691,-2.6705,-2.678,-2.6792,-2.6805,-2.6808,-2.6806,-2.6805,-2.6827,-2.6822,-2.6811,-2.681,-2.6809,-2.6809,0,-2.6225,-2.6251,-2.6333,-2.6386,-2.64,-2.6452,-2.6496,-2.6542,-2.6563,-2.6629,-2.6645,-2.6679,-2.674,-2.6763,-2.6836,-2.6846,-2.6933,-2.693,-2.6918,-2.6919,-2.6969,-2.6965,-2.712,-2.7143,-2.7013,-2.7014,-2.7015,0,-2.6286,-2.6336,-2.6395,-2.6431,-2.6459,-2.6516,-2.6553,-2.6573,-2.6611,-2.667,-2.6708,-2.677,-2.682,-2.6918,-2.6949,-2.7006,-2.7006,-2.7057,-2.7014,-2.7012,-2.7009,-2.7007,-2.7013,-2.7065,-2.7066,-2.7067,-2.7068,0,-2.6393,-2.6404,-2.6458,-2.6518,-2.6562,-2.6609,-2.6655,-2.6684,-2.6711,-2.6754,-2.6818,-2.6857,-2.6935,-2.6996,-2.7056,-2.7083,-2.7081,-2.7081,-2.7096,-2.7095,-2.7087,-2.7095,-2.6942,-2.7078,-2.7077,-2.7076,-2.7075,-2.7075,-2.6467,-2.6513,-2.6562,-2.6623,-2.666,-2.6704,-2.675,-2.6779,-2.6833,-2.6899,-2.6907,-2.6976,-2.7023,-2.7103,-2.7133,-2.7188,-2.7174,-2.7195,-2.7201,-2.7206,-2.7211,-2.7078,-2.7198,-2.7198,-2.7198,-2.7198,-2.7198,0,-2.6576,-2.6608,-2.6664,-2.673,-2.6778,-2.6773,-2.6825,-2.6865,-2.6927,-2.6972,-2.7023,-2.7097,-2.7158,-2.7195,-2.7256,-2.7293,-2.7293,-2.7308,-2.7306,-2.7313,-2.7219,-2.7201,-2.7307,-2.7307,-2.7307,-2.7307,-2.7307,-2.7307,-2.6638,-2.6716,-2.6734,-2.6831,-2.6863,-2.6933,-2.6963,-2.7004,-2.704,-2.7124,-2.7176,-2.72,-2.7242,-2.7306,-2.7362,-2.7371,-2.7395,-2.7411,-2.742,-2.7331,-2.7319,-2.7309,-2.7292,-2.7416,-2.7416,-2.751,-2.7511,-2.7512]}]]